Weather History for KANK - June, 2013

Change the Weather History Date:

Saturday, June 15, 2013

  Actual Average (KGUC) Record (KGUC)
Temperature  
Mean Temperature 65 °F -  
Max Temperature 83 °F 71 °F 80 °F (2002)
Min Temperature 47 °F 36 °F 28 °F (2001)
Growing Degree Days 15 (Base 50)    
Moisture  
Dew Point 29 °F    
Average Humidity 32    
Maximum Humidity 68    
Minimum Humidity 7    
Precipitation  
Precipitation 0.00 in - - ()
Sea Level Pressure  
Sea Level Pressure 30.29 in    
Wind  
Wind Speed 7 mph (West)    
Max Wind Speed 37 mph    
Max Gust Speed 44 mph    
Visibility 10 miles    
Events      
Averages and records for this station are not official NWS values.
T = Trace of Precipitation, MM = Missing Value Source: NWS Daily Summary

Daily Weather History Graph

Daily Weather History Graph

Search for Another Location

Airport or City:

Trip Planner

Search our weather history database for the weather conditions in past years. The results will help you decide how hot, cold, wet, or windy it might be!

Date:

Astronomy

Jun. 15, 2013 Rise Set
Actual Time 5:39 AM MDT 8:30 PM MDT
Civil Twilight 5:07 AM MDT 9:02 PM MDT
Nautical Twilight 4:27 AM MDT 9:42 PM MDT
Astronomical Twilight 3:41 AM MDT 10:27 PM MDT
Moon 12:12 PM MDT (6/15) 12:11 AM MDT (6/15)
Length of Visible Light 15h 54m
Length of Day
14h 50m
Waxing Crescent, 40% of the Moon is Illuminated
Jun 15
Waxing Crescent
Jun 16
First Quarter
Jun 23
Full
Jun 29
Last Quarter
Jul 8
New

Hourly Weather History & Observations

Time (MDT) Temp. Dew Point Humidity Pressure Visibility Wind Dir Wind Speed Gust Speed Precip Events Conditions
12:15 AM 60.6 °F 37.4 °F 42% 30.27 in 10.0 mi SW 4.6 mph - N/A   Clear
12:35 AM 58.6 °F 36.5 °F 44% 30.27 in 10.0 mi SW 3.5 mph - N/A   Clear
12:55 AM 57.4 °F 36.5 °F 46% 30.27 in 10.0 mi SW 3.5 mph - N/A   Clear
1:15 AM 54.9 °F 37.4 °F 52% 30.26 in 10.0 mi SW 4.6 mph - N/A   Clear
1:35 AM 52.9 °F 35.6 °F 52% 30.27 in 10.0 mi SSW 4.6 mph - N/A   Clear
1:55 AM 53.6 °F 34.9 °F 49% 30.27 in 10.0 mi SW 9.2 mph - N/A   Clear
2:15 AM 52.2 °F 35.4 °F 53% 30.27 in 10.0 mi WSW 9.2 mph - N/A   Clear
2:35 AM 52.2 °F 36.7 °F 56% 30.28 in 10.0 mi WSW 6.9 mph - N/A   Clear
2:55 AM 50.0 °F 39.2 °F 66% 30.28 in 10.0 mi WSW 5.8 mph - N/A   Clear
3:15 AM 49.3 °F 38.3 °F 66% 30.27 in 10.0 mi West 6.9 mph - N/A   Clear
3:35 AM 49.1 °F 38.3 °F 66% 30.28 in 10.0 mi West 8.1 mph - N/A   Clear
3:55 AM 48.7 °F 38.7 °F 68% 30.27 in 10.0 mi WSW 6.9 mph - N/A   Clear
4:15 AM 49.5 °F 36.9 °F 62% 30.28 in 10.0 mi West 6.9 mph - N/A   Clear
4:35 AM 49.1 °F 37.4 °F 64% 30.28 in 10.0 mi West 6.9 mph - N/A   Clear
4:55 AM 48.6 °F 33.8 °F 57% 30.29 in 10.0 mi WNW 5.8 mph - N/A   Clear
5:15 AM 50.0 °F 35.4 °F 57% 30.30 in 10.0 mi NW 8.1 mph - N/A   Clear
5:35 AM 51.1 °F 31.8 °F 48% 30.30 in 10.0 mi West 4.6 mph - N/A   Clear
5:55 AM 47.7 °F 34.0 °F 59% 30.31 in 10.0 mi West 6.9 mph - N/A   Clear
6:15 AM 49.3 °F 35.4 °F 59% 30.32 in 10.0 mi NW 6.9 mph - N/A   Clear
6:35 AM 51.8 °F 31.6 °F 46% 30.32 in 10.0 mi NNW 5.8 mph - N/A   Clear
6:55 AM 51.8 °F 31.8 °F 47% 30.32 in 10.0 mi NNW 8.1 mph - N/A   Clear
7:15 AM 53.1 °F 29.7 °F 41% 30.32 in 10.0 mi NNW 8.1 mph - N/A   Clear
7:35 AM 55.0 °F 31.6 °F 41% 30.32 in 10.0 mi NNW 3.5 mph - N/A   Clear
7:55 AM 57.2 °F 32.7 °F 40% 30.32 in 10.0 mi NNW 5.8 mph - N/A   Clear
8:15 AM 59.5 °F 32.7 °F 36% 30.32 in 10.0 mi NW 5.8 mph - N/A   Clear
8:35 AM 60.6 °F 32.9 °F 35% 30.32 in 10.0 mi Calm Calm - N/A   Clear
8:55 AM 62.6 °F 32.2 °F 32% 30.32 in 10.0 mi NW 3.5 mph - N/A   Clear
9:15 AM 64.6 °F 33.1 °F 31% 30.31 in 10.0 mi NNW 4.6 mph - N/A   Clear
9:35 AM 66.7 °F 33.6 °F 29% 30.30 in 10.0 mi North 3.5 mph - N/A   Clear
9:55 AM 68.0 °F 32.9 °F 27% 30.29 in 10.0 mi Calm Calm - N/A   Clear
10:15 AM 71.8 °F 33.8 °F 25% 30.29 in 10.0 mi NE 3.5 mph - N/A   Clear
10:35 AM 75.0 °F 32.7 °F 21% 30.28 in 10.0 mi ESE 3.5 mph - N/A   Clear
10:55 AM 77.2 °F 25.7 °F 15% 30.28 in 10.0 mi West 5.8 mph - N/A   Clear
11:15 AM 80.6 °F 10.6 °F 7% 30.27 in 10.0 mi West 18.4 mph 29.9 mph N/A   Clear
11:35 AM 80.6 °F 11.3 °F 7% 30.28 in 10.0 mi WNW 19.6 mph 28.8 mph N/A   Clear
11:55 AM 80.8 °F 14.4 °F 8% 30.28 in 10.0 mi WSW 19.6 mph 28.8 mph N/A   Clear
12:15 PM 82.6 °F 14.7 °F 8% 30.27 in 10.0 mi WSW 9.2 mph 28.8 mph N/A   Clear
12:35 PM 82.8 °F 15.4 °F 8% 30.27 in 10.0 mi WSW 15.0 mph 28.8 mph N/A   Clear
12:55 PM 83.1 °F 15.8 °F 8% 30.27 in 10.0 mi WSW 19.6 mph 27.6 mph N/A   Clear
1:15 PM 80.6 °F 16.0 °F 9% 30.27 in 10.0 mi West 16.1 mph 23.0 mph N/A   Clear
1:35 PM 81.0 °F 16.5 °F 9% 30.25 in 10.0 mi West 5.8 mph 23.0 mph N/A   Clear
1:55 PM 83.5 °F 16.7 °F 8% 30.25 in 10.0 mi WSW 6.9 mph 24.2 mph N/A   Clear
2:35 PM 81.5 °F 18.1 °F 9% 30.24 in 10.0 mi West 9.2 mph 26.5 mph N/A   Clear
2:55 PM 77.5 °F 21.6 °F 12% 30.28 in 10.0 mi West 36.8 mph 43.7 mph N/A   Scattered Clouds
3:15 PM 71.8 °F 30.2 °F 21% 30.35 in 10.0 mi SW 16.1 mph 33.4 mph N/A   Mostly Cloudy
3:35 PM 73.2 °F 30.2 °F 20% 30.32 in 10.0 mi SSW 10.4 mph 17.3 mph N/A   Mostly Cloudy
4:15 PM 77.2 °F 27.7 °F 16% 30.29 in 10.0 mi WNW 6.9 mph - N/A   Clear
4:35 PM 79.7 °F 24.6 °F 13% 30.27 in 10.0 mi West 9.2 mph - N/A   Clear
5:15 PM 79.0 °F 24.4 °F 13% 30.25 in 10.0 mi SSW 8.1 mph 20.7 mph N/A   Clear
5:55 PM 76.6 °F 25.0 °F 15% 30.24 in 10.0 mi SSW 9.2 mph - N/A   Clear
6:15 PM 79.0 °F 24.1 °F 13% 30.23 in 10.0 mi WSW 3.5 mph - N/A   Clear
6:55 PM 75.9 °F 24.4 °F 15% 30.25 in 10.0 mi WSW 9.2 mph - N/A   Clear
7:15 PM 74.7 °F 25.2 °F 16% 30.26 in 10.0 mi WSW 11.5 mph - N/A   Clear
7:35 PM 73.9 °F 27.7 °F 18% 30.29 in 10.0 mi WSW 25.3 mph 34.5 mph N/A   Scattered Clouds
8:55 PM 69.3 °F 29.8 °F 23% 30.31 in 10.0 mi SW 13.8 mph 18.4 mph N/A   Clear
9:35 PM 68.0 °F 30.4 °F 25% 30.32 in 10.0 mi WSW 11.5 mph - N/A   Clear
9:55 PM 67.5 °F 30.6 °F 25% 30.33 in 10.0 mi SW 12.7 mph 16.1 mph N/A   Clear
10:15 PM 67.1 °F 30.6 °F 26% 30.33 in 10.0 mi WSW 10.4 mph - N/A   Clear
10:35 PM 66.6 °F 31.1 °F 27% 30.34 in 10.0 mi SW 10.4 mph 16.1 mph N/A   Clear
10:55 PM 65.7 °F 31.1 °F 27% 30.34 in 10.0 mi WSW 8.1 mph - N/A   Clear
11:15 PM 64.6 °F 31.5 °F 29% 30.34 in 10.0 mi SW 6.9 mph - N/A   Clear
11:35 PM 65.3 °F 30.7 °F 27% 30.34 in 10.0 mi SW 9.2 mph - N/A   Clear
11:55 PM 64.9 °F 30.4 °F 27% 30.34 in 10.0 mi SW 8.1 mph - N/A   Clear